Regional Weather Roundup
Issued by NWS

Home | Current Version | Previous Version | Graphics & Text | Print | Product List | Glossary On
Versions: 1 2 3 4 5 6 7 8 9 10 11 12 13 14 15 16 17 18 19 20 21 22 23 24 25 26 27 28 29 30 31 32 33 34 35 36 37 38 39 40 41 42 43 44 45 46 47 48 49 50
000
ASUS43 KFSD 301910
RWRSD

WEATHER ROUNDUP FOR SOUTH DAKOTA
NATIONAL WEATHER SERVICE SIOUX FALLS SD
200 PM CDT THU JUL 30 2015

NOTE: "FAIR" INDICATES FEW OR NO CLOUDS BELOW 12,000 FEET WITH NO
SIGNIFICANT WEATHER AND/OR OBSTRUCTIONS TO VISIBILITY.


SDZ001>005-009-010-012>017-302000-
NORTHWEST AND NORTH CENTRAL SOUTH DAKOTA

CITY           SKY/WX    TMP DP  RH WIND       PRES   REMARKS
BUFFALO          N/A     87  40  19 W14G21    30.16F
FAITH            N/A     88  37  16 NW10      30.20F
MOBRIDGE       SUNNY     89  51  27 NW10      30.12F
$$

SDZ012>016-024>037-041>051-057-063-072>074-302000-
SOUTHWEST AND SOUTH CENTRAL SOUTH DAKOTA

CITY           SKY/WX    TMP DP  RH WIND       PRES   REMARKS
RAPID CTY ARPT SUNNY     85  45  24 N8        30.25F
PIERRE         SUNNY     89  43  20 NW9G16    30.15F
CUSTER         SUNNY     78  36  21 MISG      30.39F
ELLSWORTH AFB  SUNNY     84  41  21 N5        30.25F
PHILIP         SUNNY     89  44  20 NW7       30.19F
PINE RIDGE     SUNNY     86  46  24 N6        30.26F
SPEARFISH      FAIR      81  45  28 W7        30.31S
WINNER         FAIR      91  43  18 NW7       30.17F
$$

SDZ004>011-016>023-039-040-302000-
NORTHEAST SOUTH DAKOTA

CITY           SKY/WX    TMP DP  RH WIND       PRES   REMARKS
ABERDEEN       SUNNY     88  53  30 W13G18    30.10F
WATERTOWN      SUNNY     83  53  35 W12       30.14F
BROOKINGS      SUNNY     82  55  39 W8        30.16S
SISSETON         N/A     83  56  39 NW12      30.08F
$$

SDZ017-020-022-023-036>040-048>070-302000-
SOUTHEAST SOUTH DAKOTA

CITY           SKY/WX    TMP DP  RH WIND       PRES   REMARKS
SIOUX FALLS    SUNNY     84  63  49 VRB3      30.15S
HURON          SUNNY     86  53  32 W6        30.13F
CHAMBERLAIN    SUNNY     85  57  38 CALM      30.16F
MITCHELL       SUNNY     86  59  39 VRB3      30.14F
YANKTON        SUNNY     84  61  45 W8        30.14S
$$

ABBREVIATIONS USED IN REMARKS
   TC - TEMPERATURE IN CELSIUS
  WCI - WIND CHILL INDEX
   HX - HEAT INDEX
  VSB - VISIBILITY




USA.gov is the U.S. government's official web portal to all federal, state and local government web resources and services.